Lynn Lake, Saskatchewan

3:51 PM CDT on September 19, 2017 (GMT -0500)
Lynn Lake

Weather History for CYYL - December, 2012

Change the Weather History Date:

Tuesday, December 25, 2012

  Actual Average Record
Temperature  
Mean Temperature -10 °F -  
Max Temperature -5 °F 1 °F 39 °F (1999)
Min Temperature -14 °F -15 °F -47 °F (2004)
Degree Days  
Heating Degree Days 74    
Moisture  
Dew Point -14 °F    
Average Humidity 75    
Maximum Humidity 84    
Minimum Humidity 64    
Precipitation  
Precipitation 0.01 in 0.03 in - ()
Sea Level Pressure  
Sea Level Pressure 30.39 in    
Wind  
Wind Speed 8 mph ()    
Max Wind Speed 10 mph    
Max Gust Speed -    
Visibility 8.3 miles    
Events Snow    
Averages and records for this station are not official NWS values.
T = Trace of Precipitation, MM = Missing Value Source: Averaged Metar Reports

Daily Weather History Graph

Daily Weather History Graph

Search for Another Location

Airport or City:

Trip Planner

Search our weather history database for the weather conditions in past years. The results will help you decide how hot, cold, wet, or windy it might be!

Date:

Astronomy

Dec. 25, 2012 Rise Set
Actual Time 9:21 AM CST 4:07 PM CST
Civil Twilight 8:32 AM CST 4:56 PM CST
Nautical Twilight 7:42 AM CST 5:47 PM CST
Astronomical Twilight 6:55 AM CST 6:34 PM CST
Moon 2:26 PM CST (12/25) 6:45 AM CST (12/25)
Length of Visible Light 8h 24m
Length of Day
6h 46m
Waxing Gibbous, 94% of the Moon is Illuminated
Dec 25
Waxing Gibbous
Dec 28
Full
Jan 4
Last Quarter
Jan 11
New
Jan 18
First Quarter

Hourly Weather History & Observations

Time (CST) Temp. Windchill Dew Point Humidity Pressure Visibility Wind Dir Wind Speed Gust Speed Precip Events Conditions
12:00 AM -6 °F - -12 °F 64% 30.40 in 7 mi NNW 10.4 mph - - Snow Light Snow
12:00 AM -5.8 °F -23.4 °F -11.2 °F 77% 30.40 in 7.0 mi NNW 10.4 mph - N/A Snow Light Snow
12:04 AM -5.8 °F -23.4 °F -11.2 °F 77% 30.40 in 5.0 mi NNW 10.4 mph - N/A Snow Light Snow
12:14 AM -5.8 °F -23.4 °F -11.2 °F 77% 30.40 in 6.0 mi NNW 10.4 mph - N/A Snow Light Snow
1:00 AM -5.8 °F -22.4 °F -11.2 °F 77% 30.40 in 9.0 mi NNW 9.2 mph - N/A Snow Light Snow
2:00 AM -7.6 °F -23.4 °F -13.0 °F 77% 30.41 in 9.0 mi NW 8.1 mph - N/A Snow Light Snow
3:00 AM -7.6 °F -24.6 °F -13.0 °F 77% 30.41 in 9.0 mi NW 9.2 mph - N/A Snow Light Snow
4:00 AM -7.6 °F -23.4 °F -13.0 °F 77% 30.41 in 9.0 mi WNW 8.1 mph - N/A Snow Light Snow
4:48 AM -5.8 °F -23.4 °F -11.2 °F 77% 30.41 in 5.0 mi NW 10.4 mph - N/A Snow Light Snow
5:00 AM -5.8 °F -22.4 °F -11.2 °F 77% 30.41 in 4.0 mi NW 9.2 mph - N/A Snow Light Snow
5:09 AM -5.8 °F -22.4 °F -11.2 °F 77% 30.40 in 6.0 mi NW 9.2 mph - N/A Snow Light Snow
5:22 AM -5.8 °F -22.4 °F -11.2 °F 77% 30.40 in 5.0 mi NW 9.2 mph - N/A Snow Light Snow
5:46 AM -5.8 °F -23.4 °F -11.2 °F 77% 30.40 in 6.0 mi NW 10.4 mph - N/A Snow Light Snow
6:00 AM -7 °F - -12 °F 69% 30.41 in 10 mi NW 9.2 mph - - Snow Light Snow
7:00 AM -7.6 °F -23.4 °F -13.0 °F 77% 30.40 in 9.0 mi NW 8.1 mph - N/A Snow Light Snow
8:00 AM -7.6 °F -24.6 °F -13.0 °F 77% 30.40 in 9.0 mi NW 9.2 mph - N/A Snow Light Snow
8:13 AM -7.6 °F -22.1 °F -13.0 °F 77% 30.40 in 9.0 mi NW 6.9 mph - N/A   Scattered Clouds
8:17 AM -7.6 °F -22.1 °F -13.0 °F 77% 30.40 in 9.0 mi NW 6.9 mph - N/A Snow Light Snow
9:00 AM -7.6 °F -24.6 °F -13.0 °F 77% 30.40 in 9.0 mi NW 9.2 mph - N/A Snow Light Snow
9:21 AM -7.6 °F -24.6 °F -13.0 °F 77% 30.40 in 9.0 mi NW 9.2 mph - N/A   Partly Cloudy
10:00 AM -9.4 °F -25.6 °F -14.8 °F 77% 30.40 in 9.0 mi WNW 8.1 mph - N/A Snow Light Snow
10:07 AM -9.4 °F -25.6 °F -14.8 °F 77% 30.40 in 9.0 mi WNW 8.1 mph - N/A   Clear
11:00 AM -7.6 °F -25.7 °F -13.0 °F 77% 30.39 in 9.0 mi NW 10.4 mph - N/A   Clear
12:00 PM -7 °F - -13 °F 65% 30.40 in 10 mi NW 10.4 mph - -  
12:00 PM -5.8 °F -23.4 °F -13.0 °F 71% 30.39 in 9.0 mi NNW 10.4 mph - N/A   Clear
1:00 PM -5.8 °F -22.4 °F -13.0 °F 71% 30.38 in 9.0 mi NNW 9.2 mph - N/A   Clear
2:00 PM -5.8 °F -23.4 °F -13.0 °F 71% 30.37 in 9.0 mi NW 10.4 mph - N/A   Clear
3:00 PM -5.8 °F -22.4 °F -13.0 °F 71% 30.36 in 9.0 mi NW 9.2 mph - N/A   Clear
4:00 PM -7.6 °F -18.8 °F -13.0 °F 77% 30.37 in 9.0 mi WNW 4.6 mph - N/A   Clear
4:43 PM -9.4 °F -25.6 °F -14.8 °F 77% 30.37 in - WNW 8.1 mph - N/A Snow Light Snow
5:00 PM -9.4 °F -25.6 °F -14.8 °F 77% 30.37 in 9.0 mi WNW 8.1 mph - N/A Snow Light Snow
5:33 PM -11.2 °F -26.4 °F -16.6 °F 77% 30.37 in 9.0 mi WNW 6.9 mph - N/A   Clear
5:44 PM -11.2 °F -27.8 °F -16.6 °F 77% 30.37 in 9.0 mi WNW 8.1 mph - N/A Snow Light Snow
6:00 PM -11 °F - -16 °F 65% 30.37 in 10 mi NW 8.1 mph - - Snow Light Snow
6:00 PM -11.2 °F -27.8 °F -16.6 °F 77% 30.37 in 9.0 mi NW 8.1 mph - N/A Snow Light Snow
6:15 PM -11.2 °F -27.8 °F -16.6 °F 77% 30.36 in 9.0 mi WNW 8.1 mph - N/A   Clear
7:00 PM -13.0 °F -30.0 °F -16.6 °F 84% 30.36 in 9.0 mi WNW 8.1 mph - N/A   Unknown
8:00 PM -13.0 °F -28.6 °F -18.4 °F 77% 30.35 in 9.0 mi NW 6.9 mph - N/A   Clear
9:00 PM -13.0 °F -30.0 °F -18.4 °F 77% 30.35 in 9.0 mi NW 8.1 mph - N/A   Clear
10:00 PM -14.8 °F -32.2 °F -20.2 °F 77% 30.32 in 9.0 mi WNW 8.1 mph - N/A   Clear
11:00 PM -14.8 °F -30.8 °F -20.2 °F 77% 30.32 in 9.0 mi WNW 6.9 mph - N/A   Clear